Overview Statistics Trail Chart Weather Telemetry Raw packets
 

This is the latest recevied weather packets stored in our database for station/object LU3MCV-13. If no packets are shown the sender has not sent any weather packets the latest 10 day(s).

<< 29 30 31 32 33 34 35 >>
Time Temp. Humidity Pressure Rain* Wind** Luminosity Snow
1777345878 13.89° C 19% 935.5 hPa - - - -
1777344979 13.89° C 19% 935.4 hPa - - - -
1777344071 13.89° C 19% 935.4 hPa - - - -
1777343171 13.89° C 19% 935 hPa - - - -
1777342271 13.89° C 20% 935.1 hPa - - - -
1777341371 13.89° C 20% 934.9 hPa - - - -
1777340471 13.89° C 20% 935 hPa - - - -
1777339571 13.89° C 20% 934.5 hPa - - - -
1777338671 13.89° C 19% 934.5 hPa - - - -
1777337771 13.89° C 20% 934.3 hPa - - - -
1777336870 13.89° C 20% 934.2 hPa - - - -
1777335971 13.89° C 20% 934 hPa - - - -
1777335072 13.89° C 20% 933.9 hPa - - - -
1777334171 13.89° C 20% 933.7 hPa - - - -
1777333271 15° C 18% 933.5 hPa - - - -
1777332371 15° C 18% 933.3 hPa - - - -
1777331471 15° C 17% 933.1 hPa - - - -
1777330571 15° C 18% 933 hPa - - - -
1777329671 16.11° C 17% 932.8 hPa - - - -
1777328771 16.11° C 16% 932.5 hPa - - - -
1777327870 16.11° C 16% 932.3 hPa - - - -
1777326971 17.22° C 10% 932.4 hPa - - - -
1777326071 17.22° C 10% 932.4 hPa - - - -
1777325170 17.22° C 13% 932.4 hPa - - - -
1777324270 17.78° C 13% 932.3 hPa - - - -

* Rain since midnight (hover to see other rain measurements)
** Current wind speed in m/s (hover to see current wind gust speed)